Time,TemperatureF,DewpointF,PressureIn,WindDirection,WindDirectionDegrees,WindSpeedMPH,WindSpeedGustMPH,Humidity,HourlyPrecipIn,Conditions,Clouds,dailyrainin,SoftwareType,DateUTC
2013-01-03 00:00:00,25.6,11.2,30.26,NNW,342,0.0,8.0,54,0.00,,,0.00,Wunderground v.1.13,2013-01-03 05:00:00,
2013-01-03 00:05:00,25.4,11.0,30.26,NNW,342,0.0,8.0,54,0.00,,,0.00,Wunderground v.1.13,2013-01-03 05:05:00,
2013-01-03 00:10:00,25.4,11.5,30.26,NNW,342,0.0,8.0,55,0.00,,,0.00,Wunderground v.1.13,2013-01-03 05:10:00,
2013-01-03 00:15:00,25.3,11.0,30.26,NNW,342,0.0,8.0,54,0.00,,,0.00,Wunderground v.1.13,2013-01-03 05:15:00,
2013-01-03 00:25:00,25.1,11.2,30.26,NNW,342,0.0,8.0,55,0.00,,,0.00,Wunderground v.1.13,2013-01-03 05:25:00,
2013-01-03 00:30:00,25.1,11.2,30.26,NNW,342,0.0,8.0,55,0.00,,,0.00,Wunderground v.1.13,2013-01-03 05:30:00,
2013-01-03 00:35:00,25.0,11.5,30.27,NNW,342,0.0,8.0,56,0.00,,,0.00,Wunderground v.1.13,2013-01-03 05:35:00,
2013-01-03 00:40:00,25.0,11.9,30.27,NNW,342,0.0,8.0,57,0.00,,,0.00,Wunderground v.1.13,2013-01-03 05:40:00,
2013-01-03 00:45:00,25.0,12.3,30.27,NNW,342,0.0,8.0,58,0.00,,,0.00,Wunderground v.1.13,2013-01-03 05:45:00,
2013-01-03 00:55:00,24.8,11.7,30.25,NNW,342,0.0,8.0,57,0.00,,,0.00,Wunderground v.1.13,2013-01-03 05:55:00,
2013-01-03 01:00:00,24.8,11.7,30.25,NNW,342,0.0,8.0,57,0.00,,,0.00,Wunderground v.1.13,2013-01-03 06:00:00,
2013-01-03 01:05:00,24.8,11.7,30.26,NNW,342,0.0,8.0,57,0.00,,,0.00,Wunderground v.1.13,2013-01-03 06:05:00,
2013-01-03 01:10:00,24.7,12.0,30.26,NNW,342,0.0,8.0,58,0.00,,,0.00,Wunderground v.1.13,2013-01-03 06:10:00,
2013-01-03 01:15:00,24.7,12.4,30.26,NNW,342,0.0,8.0,59,0.00,,,0.00,Wunderground v.1.13,2013-01-03 06:15:00,
2013-01-03 01:20:00,24.7,12.4,30.26,NNW,342,0.0,8.0,59,0.00,,,0.00,Wunderground v.1.13,2013-01-03 06:20:00,
2013-01-03 01:30:00,24.5,12.6,30.26,NNW,342,0.0,8.0,60,0.00,,,0.00,Wunderground v.1.13,2013-01-03 06:30:00,
2013-01-03 01:35:00,24.5,12.6,30.25,NNW,342,0.0,8.0,60,0.00,,,0.00,Wunderground v.1.13,2013-01-03 06:35:00,
2013-01-03 01:40:00,24.4,12.9,30.25,NNW,342,0.0,8.0,61,0.00,,,0.00,Wunderground v.1.13,2013-01-03 06:40:00,
2013-01-03 01:45:00,24.4,13.2,30.25,NNW,342,0.0,8.0,62,0.00,,,0.00,Wunderground v.1.13,2013-01-03 06:45:00,
2013-01-03 01:50:00,24.4,13.2,30.26,NNW,342,0.0,8.0,62,0.00,,,0.00,Wunderground v.1.13,2013-01-03 06:50:00,
2013-01-03 02:00:00,24.5,14.1,30.26,NNW,342,0.0,8.0,64,0.00,,,0.00,Wunderground v.1.13,2013-01-03 07:00:00,
2013-01-03 02:05:00,24.5,14.4,30.26,NNW,342,0.0,8.0,65,0.00,,,0.00,Wunderground v.1.13,2013-01-03 07:05:00,
2013-01-03 02:10:00,24.5,14.4,30.26,NNW,344,0.0,8.0,65,0.00,,,0.00,Wunderground v.1.13,2013-01-03 07:10:00,
2013-01-03 02:15:00,24.4,14.3,30.26,NNW,344,0.0,8.0,65,0.00,,,0.00,Wunderground v.1.13,2013-01-03 07:15:00,
2013-01-03 02:20:00,24.4,14.3,30.26,NNW,344,0.0,8.0,65,0.00,,,0.00,Wunderground v.1.13,2013-01-03 07:20:00,
2013-01-03 02:25:00,24.2,14.1,30.26,NNW,344,0.0,8.0,65,0.00,,,0.00,Wunderground v.1.13,2013-01-03 07:25:00,
2013-01-03 02:35:00,24.1,14.4,30.26,NNW,344,0.0,8.0,66,0.00,,,0.00,Wunderground v.1.13,2013-01-03 07:35:00,
2013-01-03 02:40:00,23.9,14.5,30.26,NNW,347,0.0,8.0,67,0.00,,,0.00,Wunderground v.1.13,2013-01-03 07:40:00,
2013-01-03 02:45:00,23.8,14.4,30.26,North,354,0.0,8.0,67,0.00,,,0.00,Wunderground v.1.13,2013-01-03 07:45:00,
2013-01-03 02:50:00,23.8,14.4,30.26,ENE,71,1.0,1.0,67,0.00,,,0.00,Wunderground v.1.13,2013-01-03 07:50:00,
2013-01-03 02:55:00,23.6,14.6,30.26,ENE,71,1.0,1.0,68,0.00,,,0.00,Wunderground v.1.13,2013-01-03 07:55:00,
2013-01-03 03:05:00,23.3,14.3,30.26,NNE,28,1.0,8.0,68,0.00,,,0.00,Wunderground v.1.13,2013-01-03 08:05:00,
2013-01-03 03:10:00,23.2,14.2,30.26,ENE,65,1.0,8.0,68,0.00,,,0.00,Wunderground v.1.13,2013-01-03 08:10:00,
2013-01-03 03:15:00,23.2,14.5,30.26,ENE,65,2.0,8.0,69,0.00,,,0.00,Wunderground v.1.13,2013-01-03 08:15:00,
2013-01-03 03:20:00,23.0,14.3,30.25,ENE,65,2.0,2.0,69,0.00,,,0.00,Wunderground v.1.13,2013-01-03 08:20:00,
2013-01-03 03:25:00,23.0,14.3,30.25,ENE,64,1.0,1.0,69,0.00,,,0.00,Wunderground v.1.13,2013-01-03 08:25:00,
2013-01-03 03:30:00,22.9,14.6,30.25,East,83,1.0,8.0,70,0.00,,,0.00,Wunderground v.1.13,2013-01-03 08:30:00,
2013-01-03 03:40:00,22.7,15.0,30.24,ENE,76,1.0,8.0,72,0.00,,,0.00,Wunderground v.1.13,2013-01-03 08:40:00,
2013-01-03 03:45:00,22.5,14.8,30.24,ENE,78,1.0,8.0,72,0.00,,,0.00,Wunderground v.1.13,2013-01-03 08:45:00,
2013-01-03 03:50:00,22.4,15.1,30.24,ENE,78,1.0,1.0,73,0.00,,,0.00,Wunderground v.1.13,2013-01-03 08:50:00,
2013-01-03 03:55:00,22.4,15.1,30.24,ENE,78,0.0,8.0,73,0.00,,,0.00,Wunderground v.1.13,2013-01-03 08:55:00,
2013-01-03 04:00:00,22.2,15.2,30.24,ENE,78,0.0,8.0,74,0.00,,,0.00,Wunderground v.1.13,2013-01-03 09:00:00,
2013-01-03 04:10:00,22.1,15.4,30.25,ENE,78,0.0,8.0,75,0.00,,,0.00,Wunderground v.1.13,2013-01-03 09:10:00,
2013-01-03 04:15:00,21.9,15.2,30.25,ENE,78,0.0,8.0,75,0.00,,,0.00,Wunderground v.1.13,2013-01-03 09:15:00,
2013-01-03 04:20:00,21.9,15.5,30.25,ENE,78,0.0,8.0,76,0.00,,,0.00,Wunderground v.1.13,2013-01-03 09:20:00,
2013-01-03 04:25:00,21.9,15.5,30.25,ENE,78,0.0,8.0,76,0.00,,,0.00,Wunderground v.1.13,2013-01-03 09:25:00,
2013-01-03 04:30:00,21.9,15.5,30.25,ENE,78,0.0,8.0,76,0.00,,,0.00,Wunderground v.1.13,2013-01-03 09:30:00,
2013-01-03 04:35:00,21.8,15.4,30.25,ENE,78,0.0,8.0,76,0.00,,,0.00,Wunderground v.1.13,2013-01-03 09:35:00,
2013-01-03 04:45:00,21.8,15.4,30.25,ENE,78,0.0,8.0,76,0.00,,,0.00,Wunderground v.1.13,2013-01-03 09:45:00,
2013-01-03 04:50:00,21.8,15.4,30.25,ENE,78,0.0,8.0,76,0.00,,,0.00,Wunderground v.1.13,2013-01-03 09:50:00,
2013-01-03 04:55:00,21.8,15.1,30.25,ENE,78,1.0,1.0,75,0.00,,,0.00,Wunderground v.1.13,2013-01-03 09:55:00,
2013-01-03 05:05:00,21.8,15.4,30.26,ENE,78,0.0,8.0,76,0.00,,,0.00,Wunderground v.1.13,2013-01-03 10:05:00,
2013-01-03 05:10:00,21.8,15.4,30.26,ENE,78,0.0,8.0,76,0.00,,,0.00,Wunderground v.1.13,2013-01-03 10:10:00,
2013-01-03 05:20:00,21.8,15.4,30.26,ENE,78,0.0,8.0,76,0.00,,,0.00,Wunderground v.1.13,2013-01-03 10:20:00,
2013-01-03 05:25:00,21.6,15.2,30.26,ENE,78,0.0,8.0,76,0.00,,,0.00,Wunderground v.1.13,2013-01-03 10:25:00,
2013-01-03 05:30:00,21.6,15.5,30.26,ENE,78,0.0,8.0,77,0.00,,,0.00,Wunderground v.1.13,2013-01-03 10:30:00,
2013-01-03 05:35:00,21.6,15.5,30.26,ENE,78,1.0,8.0,77,0.00,,,0.00,Wunderground v.1.13,2013-01-03 10:35:00,
2013-01-03 05:40:00,21.4,15.3,30.26,ENE,78,1.0,1.0,77,0.00,,,0.00,Wunderground v.1.13,2013-01-03 10:40:00,
2013-01-03 05:50:00,21.4,15.3,30.26,ENE,78,0.0,8.0,77,0.00,,,0.00,Wunderground v.1.13,2013-01-03 10:50:00,
2013-01-03 05:55:00,21.4,15.3,30.26,ENE,78,0.0,8.0,77,0.00,,,0.00,Wunderground v.1.13,2013-01-03 10:55:00,
2013-01-03 06:00:00,21.3,15.2,30.26,ENE,78,0.0,8.0,77,0.00,,,0.00,Wunderground v.1.13,2013-01-03 11:00:00,
2013-01-03 06:05:00,21.3,15.2,30.26,ENE,78,0.0,8.0,77,0.00,,,0.00,Wunderground v.1.13,2013-01-03 11:05:00,
2013-01-03 06:10:00,21.1,15.3,30.26,ENE,78,0.0,8.0,78,0.00,,,0.00,Wunderground v.1.13,2013-01-03 11:10:00,
2013-01-03 06:20:00,21.1,15.3,30.27,ENE,78,0.0,8.0,78,0.00,,,0.00,Wunderground v.1.13,2013-01-03 11:20:00,
2013-01-03 06:25:00,21.1,15.6,30.27,NE,37,0.0,8.0,79,0.00,,,0.00,Wunderground v.1.13,2013-01-03 11:25:00,
2013-01-03 06:30:00,21.1,15.6,30.27,ENE,78,0.0,8.0,79,0.00,,,0.00,Wunderground v.1.13,2013-01-03 11:30:00,
2013-01-03 06:35:00,21.1,15.6,30.28,ENE,78,0.0,8.0,79,0.00,,,0.00,Wunderground v.1.13,2013-01-03 11:35:00,
2013-01-03 06:40:00,21.1,15.6,30.28,ENE,78,0.0,8.0,79,0.00,,,0.00,Wunderground v.1.13,2013-01-03 11:40:00,
2013-01-03 06:45:00,21.0,15.8,30.28,ENE,78,0.0,8.0,80,0.00,,,0.00,Wunderground v.1.13,2013-01-03 11:45:00,
2013-01-03 06:55:00,20.8,15.6,30.28,ENE,78,1.0,1.0,80,0.00,,,0.00,Wunderground v.1.13,2013-01-03 11:55:00,
2013-01-03 07:00:00,20.8,15.6,30.28,ENE,78,1.0,8.0,80,0.00,,,0.00,Wunderground v.1.13,2013-01-03 12:00:00,
2013-01-03 07:05:00,20.6,15.4,30.28,NE,49,1.0,1.0,80,0.00,,,0.00,Wunderground v.1.13,2013-01-03 12:05:00,
2013-01-03 07:10:00,20.6,15.4,30.28,ENE,72,1.0,8.0,80,0.00,,,0.00,Wunderground v.1.13,2013-01-03 12:10:00,
2013-01-03 07:15:00,20.6,15.4,30.28,ENE,72,1.0,1.0,80,0.00,,,0.00,Wunderground v.1.13,2013-01-03 12:15:00,
2013-01-03 07:20:00,20.5,15.3,30.28,ENE,72,0.0,8.0,80,0.00,,,0.00,Wunderground v.1.13,2013-01-03 12:20:00,
2013-01-03 07:25:00,20.5,15.3,30.28,ENE,72,0.0,8.0,80,0.00,,,0.00,Wunderground v.1.13,2013-01-03 12:25:00,
2013-01-03 07:30:00,20.3,15.1,30.28,ENE,72,1.0,1.0,80,0.00,,,0.00,Wunderground v.1.13,2013-01-03 12:30:00,
2013-01-03 07:35:00,20.2,15.0,30.29,ENE,72,1.0,1.0,80,0.00,,,0.00,Wunderground v.1.13,2013-01-03 12:35:00,
2013-01-03 07:40:00,20.2,15.0,30.29,ENE,72,1.0,1.0,80,0.00,,,0.00,Wunderground v.1.13,2013-01-03 12:40:00,
2013-01-03 07:45:00,20.2,15.0,30.29,ENE,72,1.0,1.0,80,0.00,,,0.00,Wunderground v.1.13,2013-01-03 12:45:00,
2013-01-03 07:55:00,20.2,15.0,30.29,ENE,72,1.0,8.0,80,0.00,,,0.00,Wunderground v.1.13,2013-01-03 12:55:00,
2013-01-03 08:00:00,20.0,14.8,30.29,ENE,72,1.0,8.0,80,0.00,,,0.00,Wunderground v.1.13,2013-01-03 13:00:00,
2013-01-03 08:05:00,20.0,14.8,30.29,ENE,72,1.0,1.0,80,0.00,,,0.00,Wunderground v.1.13,2013-01-03 13:05:00,
2013-01-03 08:10:00,20.0,14.8,30.29,ENE,72,1.0,1.0,80,0.00,,,0.00,Wunderground v.1.13,2013-01-03 13:10:00,
2013-01-03 08:15:00,20.0,14.5,30.29,ENE,72,1.0,1.0,79,0.00,,,0.00,Wunderground v.1.13,2013-01-03 13:15:00,
2013-01-03 08:20:00,20.0,14.5,30.29,ENE,72,1.0,1.0,79,0.00,,,0.00,Wunderground v.1.13,2013-01-03 13:20:00,
2013-01-03 08:30:00,20.2,14.7,30.29,ENE,72,0.0,8.0,79,0.00,,,0.00,Wunderground v.1.13,2013-01-03 13:30:00,
2013-01-03 08:35:00,20.2,14.7,30.29,ENE,72,0.0,8.0,79,0.00,,,0.00,Wunderground v.1.13,2013-01-03 13:35:00,
2013-01-03 08:40:00,20.3,14.5,30.29,ENE,72,1.0,1.0,78,0.00,,,0.00,Wunderground v.1.13,2013-01-03 13:40:00,
2013-01-03 08:45:00,20.3,14.5,30.29,ENE,72,0.0,8.0,78,0.00,,,0.00,Wunderground v.1.13,2013-01-03 13:45:00,
2013-01-03 08:50:00,20.5,14.7,30.30,ENE,72,0.0,8.0,78,0.00,,,0.00,Wunderground v.1.13,2013-01-03 13:50:00,
2013-01-03 09:00:00,21.3,15.2,30.30,ENE,72,0.0,8.0,77,0.00,,,0.00,Wunderground v.1.13,2013-01-03 14:00:00,
2013-01-03 09:05:00,21.8,15.1,30.30,ENE,72,1.0,1.0,75,0.00,,,0.00,Wunderground v.1.13,2013-01-03 14:05:00,
2013-01-03 09:10:00,22.1,15.1,30.30,ENE,75,1.0,8.0,74,0.00,,,0.00,Wunderground v.1.13,2013-01-03 14:10:00,
2013-01-03 09:15:00,22.4,14.4,30.30,ENE,75,1.0,8.0,71,0.00,,,0.00,Wunderground v.1.13,2013-01-03 14:15:00,
2013-01-03 09:20:00,22.7,14.4,30.30,ENE,73,1.0,8.0,70,0.00,,,0.00,Wunderground v.1.13,2013-01-03 14:20:00,
2013-01-03 09:25:00,23.2,14.5,30.30,ENE,73,0.0,8.0,69,0.00,,,0.00,Wunderground v.1.13,2013-01-03 14:25:00,
2013-01-03 09:35:00,24.1,14.4,30.29,East,82,1.0,1.0,66,0.00,,,0.00,Wunderground v.1.13,2013-01-03 14:35:00,
2013-01-03 09:40:00,24.5,14.4,30.29,East,82,1.0,1.0,65,0.00,,,0.00,Wunderground v.1.13,2013-01-03 14:40:00,
2013-01-03 09:45:00,24.8,14.3,30.29,East,82,0.0,8.0,64,0.00,,,0.00,Wunderground v.1.13,2013-01-03 14:45:00,
2013-01-03 09:50:00,25.1,14.6,30.30,East,82,0.0,8.0,64,0.00,,,0.00,Wunderground v.1.13,2013-01-03 14:50:00,
2013-01-03 09:55:00,25.6,14.7,30.30,East,82,0.0,8.0,63,0.00,,,0.00,Wunderground v.1.13,2013-01-03 14:55:00,
2013-01-03 10:05:00,26.6,14.6,30.29,East,82,0.0,8.0,60,0.00,,,0.00,Wunderground v.1.13,2013-01-03 15:05:00,
2013-01-03 10:10:00,26.9,14.9,30.29,East,82,0.0,8.0,60,0.00,,,0.00,Wunderground v.1.13,2013-01-03 15:10:00,
2013-01-03 10:15:00,27.3,14.8,30.29,East,82,0.0,8.0,59,0.00,,,0.00,Wunderground v.1.13,2013-01-03 15:15:00,
2013-01-03 10:20:00,27.9,14.6,30.30,East,82,0.0,8.0,57,0.00,,,0.00,Wunderground v.1.13,2013-01-03 15:20:00,
2013-01-03 10:25:00,28.5,14.4,30.30,East,82,0.0,8.0,55,0.00,,,0.00,Wunderground v.1.13,2013-01-03 15:25:00,
2013-01-03 10:30:00,29.0,14.4,30.30,East,82,0.0,8.0,54,0.00,,,0.00,Wunderground v.1.13,2013-01-03 15:30:00,
2013-01-03 10:40:00,30.0,12.7,30.30,East,82,0.0,8.0,48,0.00,,,0.00,Wunderground v.1.13,2013-01-03 15:40:00,
2013-01-03 10:45:00,30.6,12.7,30.30,SSW,200,0.0,8.0,47,0.00,,,0.00,Wunderground v.1.13,2013-01-03 15:45:00,
2013-01-03 10:50:00,31.0,13.6,30.30,SE,127,0.0,8.0,48,0.00,,,0.00,Wunderground v.1.13,2013-01-03 15:50:00,
2013-01-03 10:55:00,31.5,13.1,30.30,ESE,119,0.0,8.0,46,0.00,,,0.00,Wunderground v.1.13,2013-01-03 15:55:00,
2013-01-03 11:00:00,31.5,13.1,30.30,SE,137,1.0,1.0,46,0.00,,,0.00,Wunderground v.1.13,2013-01-03 16:00:00,
2013-01-03 11:05:00,31.6,12.7,30.29,SE,127,1.0,1.0,45,0.00,,,0.00,Wunderground v.1.13,2013-01-03 16:05:00,
2013-01-03 11:10:00,31.8,11.8,30.29,SE,128,0.0,8.0,43,0.00,,,0.00,Wunderground v.1.13,2013-01-03 16:10:00,
2013-01-03 11:15:00,32.1,13.1,30.29,SE,128,0.0,8.0,45,0.00,,,0.00,Wunderground v.1.13,2013-01-03 16:15:00,
2013-01-03 11:20:00,32.5,11.9,30.29,SE,127,0.0,8.0,42,0.00,,,0.00,Wunderground v.1.13,2013-01-03 16:20:00,
2013-01-03 11:25:00,32.5,11.9,30.29,South,171,1.0,8.0,42,0.00,,,0.00,Wunderground v.1.13,2013-01-03 16:25:00,
2013-01-03 11:30:00,32.8,12.7,30.29,SSE,165,1.0,1.0,43,0.00,,,0.00,Wunderground v.1.13,2013-01-03 16:30:00,
2013-01-03 11:35:00,33.2,12.6,30.29,SSE,162,0.0,8.0,42,0.00,,,0.00,Wunderground v.1.13,2013-01-03 16:35:00,
2013-01-03 11:45:00,34.1,13.4,30.29,South,191,0.0,8.0,42,0.00,,,0.00,Wunderground v.1.13,2013-01-03 16:45:00,
2013-01-03 11:50:00,34.4,13.6,30.28,ESE,103,0.0,8.0,42,0.00,,,0.00,Wunderground v.1.13,2013-01-03 16:50:00,
2013-01-03 11:55:00,34.6,12.1,30.28,ESE,117,1.0,1.0,39,0.00,,,0.00,Wunderground v.1.13,2013-01-03 16:55:00,
2013-01-03 12:00:00,34.9,13.0,30.28,ESE,114,1.0,1.0,40,0.00,,,0.00,Wunderground v.1.13,2013-01-03 17:00:00,
2013-01-03 12:05:00,35.0,13.1,30.27,South,175,0.0,8.0,40,0.00,,,0.00,Wunderground v.1.13,2013-01-03 17:05:00,
2013-01-03 12:10:00,35.3,12.8,30.27,SSW,196,0.0,8.0,39,0.00,,,0.00,Wunderground v.1.13,2013-01-03 17:10:00,
2013-01-03 12:15:00,35.6,14.7,30.27,SSE,157,0.0,8.0,42,0.00,,,0.00,Wunderground v.1.13,2013-01-03 17:15:00,
2013-01-03 12:20:00,35.9,14.5,30.27,WSW,241,0.0,8.0,41,0.00,,,0.00,Wunderground v.1.13,2013-01-03 17:20:00,
2013-01-03 12:25:00,36.0,15.6,30.27,SE,138,1.0,1.0,43,0.00,,,0.00,Wunderground v.1.13,2013-01-03 17:25:00,
2013-01-03 12:30:00,36.2,14.2,30.27,SE,141,1.0,1.0,40,0.00,,,0.00,Wunderground v.1.13,2013-01-03 17:30:00,
2013-01-03 12:35:00,36.5,16.1,30.27,ESE,123,1.0,8.0,43,0.00,,,0.00,Wunderground v.1.13,2013-01-03 17:35:00,
2013-01-03 12:40:00,36.6,15.6,30.27,South,174,1.0,1.0,42,0.00,,,0.00,Wunderground v.1.13,2013-01-03 17:40:00,
2013-01-03 12:50:00,36.9,15.9,30.26,SE,143,1.0,1.0,42,0.00,,,0.00,Wunderground v.1.13,2013-01-03 17:50:00,
2013-01-03 12:55:00,37.3,16.3,30.26,SE,124,0.0,8.0,42,0.00,,,0.00,Wunderground v.1.13,2013-01-03 17:55:00,
2013-01-03 13:00:00,37.5,15.9,30.26,SE,141,1.0,1.0,41,0.00,,,0.00,Wunderground v.1.13,2013-01-03 18:00:00,
2013-01-03 13:05:00,37.8,15.6,30.25,ESE,102,1.0,1.0,40,0.00,,,0.00,Wunderground v.1.13,2013-01-03 18:05:00,
2013-01-03 13:10:00,37.8,15.6,30.25,SE,133,1.0,1.0,40,0.00,,,0.00,Wunderground v.1.13,2013-01-03 18:10:00,
2013-01-03 13:20:00,37.9,15.7,30.25,ESE,120,2.0,2.0,40,0.00,,,0.00,Wunderground v.1.13,2013-01-03 18:20:00,
2013-01-03 13:25:00,38.0,16.9,30.25,South,181,1.0,1.0,42,0.00,,,0.00,Wunderground v.1.13,2013-01-03 18:25:00,
2013-01-03 13:30:00,38.2,16.5,30.25,East,89,1.0,8.0,41,0.00,,,0.00,Wunderground v.1.13,2013-01-03 18:30:00,
2013-01-03 13:35:00,37.9,16.3,30.25,ESE,103,4.0,8.0,41,0.00,,,0.01,Wunderground v.1.13,2013-01-03 18:35:00,
2013-01-03 13:40:00,37.8,16.2,30.25,SE,124,5.0,8.0,41,0.00,,,0.01,Wunderground v.1.13,2013-01-03 18:40:00,
2013-01-03 13:45:00,37.6,16.5,30.25,SSW,192,4.0,4.0,42,0.00,,,0.01,Wunderground v.1.13,2013-01-03 18:45:00,
2013-01-03 13:55:00,37.8,17.3,30.25,ESE,123,3.0,3.0,43,0.00,,,0.01,Wunderground v.1.13,2013-01-03 18:55:00,
2013-01-03 14:00:00,37.8,17.8,30.25,ESE,121,3.0,3.0,44,0.00,,,0.01,Wunderground v.1.13,2013-01-03 19:00:00,
2013-01-03 14:05:00,38.0,20.0,30.25,SE,124,2.0,2.0,48,0.00,,,0.01,Wunderground v.1.13,2013-01-03 19:05:00,
2013-01-03 14:10:00,38.0,19.5,30.25,ESE,119,1.0,8.0,47,0.00,,,0.01,Wunderground v.1.13,2013-01-03 19:10:00,
2013-01-03 14:15:00,38.2,21.2,30.25,South,175,2.0,2.0,50,0.00,,,0.01,Wunderground v.1.13,2013-01-03 19:15:00,
2013-01-03 14:55:00,38.8,20.8,30.26,SSE,154,2.0,2.0,48,0.00,,,0.01,Wunderground v.1.13,2013-01-03 19:55:00,
2013-01-03 15:00:00,38.8,20.8,30.26,ESE,119,1.0,8.0,48,0.00,,,0.01,Wunderground v.1.13,2013-01-03 20:00:00,
2013-01-03 15:10:00,38.8,20.3,30.26,SE,141,2.0,2.0,47,0.00,,,0.01,Wunderground v.1.13,2013-01-03 20:10:00,
2013-01-03 15:15:00,38.5,21.5,30.26,South,172,2.0,8.0,50,0.00,,,0.01,Wunderground v.1.13,2013-01-03 20:15:00,
2013-01-03 15:20:00,38.5,21.9,30.27,SSE,151,2.0,8.0,51,0.00,,,0.01,Wunderground v.1.13,2013-01-03 20:20:00,
2013-01-03 15:25:00,38.5,21.9,30.27,SSW,209,2.0,2.0,51,0.00,,,0.01,Wunderground v.1.13,2013-01-03 20:25:00,
2013-01-03 15:30:00,38.5,22.4,30.27,ESE,106,2.0,8.0,52,0.00,,,0.01,Wunderground v.1.13,2013-01-03 20:30:00,
2013-01-03 15:35:00,38.3,21.7,30.28,ESE,123,1.0,1.0,51,0.00,,,0.01,Wunderground v.1.13,2013-01-03 20:35:00,
2013-01-03 15:40:00,38.3,21.7,30.28,ESE,123,1.0,8.0,51,0.00,,,0.01,Wunderground v.1.13,2013-01-03 20:40:00,
2013-01-03 15:45:00,38.0,21.9,30.28,SE,136,1.0,8.0,52,0.00,,,0.01,Wunderground v.1.13,2013-01-03 20:45:00,
2013-01-03 15:50:00,37.9,21.8,30.29,South,171,2.0,2.0,52,0.00,,,0.01,Wunderground v.1.13,2013-01-03 20:50:00,
2013-01-03 15:55:00,37.9,21.8,30.29,SW,230,1.0,8.0,52,0.00,,,0.01,Wunderground v.1.13,2013-01-03 20:55:00,
2013-01-03 16:00:00,37.8,21.3,30.29,SE,141,1.0,8.0,51,0.00,,,0.01,Wunderground v.1.13,2013-01-03 21:00:00,
2013-01-03 16:05:00,37.6,20.6,30.29,SE,127,1.0,8.0,50,0.00,,,0.01,Wunderground v.1.13,2013-01-03 21:05:00,
2013-01-03 16:15:00,37.3,19.9,30.29,SE,124,2.0,2.0,49,0.00,,,0.01,Wunderground v.1.13,2013-01-03 21:15:00,
2013-01-03 16:20:00,37.3,20.3,30.29,ESE,102,1.0,1.0,50,0.00,,,0.01,Wunderground v.1.13,2013-01-03 21:20:00,
2013-01-03 16:25:00,37.2,19.8,30.29,North,0,1.0,8.0,49,0.00,,,0.01,Wunderground v.1.13,2013-01-03 21:25:00,
2013-01-03 16:30:00,37.0,20.5,30.29,SSE,147,1.0,1.0,51,0.00,,,0.01,Wunderground v.1.13,2013-01-03 21:30:00,
2013-01-03 16:35:00,37.0,20.1,30.30,South,189,1.0,1.0,50,0.00,,,0.01,Wunderground v.1.13,2013-01-03 21:35:00,
2013-01-03 16:40:00,37.0,19.6,30.30,SSE,155,1.0,1.0,49,0.00,,,0.01,Wunderground v.1.13,2013-01-03 21:40:00,
2013-01-03 16:45:00,36.9,19.5,30.30,SSE,152,1.0,8.0,49,0.00,,,0.01,Wunderground v.1.13,2013-01-03 21:45:00,
2013-01-03 16:50:00,36.8,19.4,30.29,East,80,1.0,1.0,49,0.00,,,0.01,Wunderground v.1.13,2013-01-03 21:50:00,
2013-01-03 16:55:00,36.8,19.4,30.29,SSW,196,1.0,1.0,49,0.00,,,0.01,Wunderground v.1.13,2013-01-03 21:55:00,
2013-01-03 17:05:00,36.3,19.4,30.30,South,178,1.0,1.0,50,0.00,,,0.01,Wunderground v.1.13,2013-01-03 22:05:00,
2013-01-03 17:10:00,36.2,19.8,30.30,South,181,0.0,8.0,51,0.00,,,0.01,Wunderground v.1.13,2013-01-03 22:10:00,
2013-01-03 17:15:00,36.0,18.7,30.30,SSW,203,0.0,8.0,49,0.00,,,0.01,Wunderground v.1.13,2013-01-03 22:15:00,
2013-01-03 17:20:00,35.9,19.0,30.31,ESE,109,1.0,1.0,50,0.00,,,0.01,Wunderground v.1.13,2013-01-03 22:20:00,
2013-01-03 17:25:00,35.6,18.8,30.31,ESE,114,1.0,1.0,50,0.00,,,0.01,Wunderground v.1.13,2013-01-03 22:25:00,
2013-01-03 17:30:00,35.3,18.5,30.31,SE,128,2.0,2.0,50,0.00,,,0.01,Wunderground v.1.13,2013-01-03 22:30:00,
2013-01-03 17:35:00,35.0,18.2,30.31,SE,127,2.0,8.0,50,0.00,,,0.01,Wunderground v.1.13,2013-01-03 22:35:00,
2013-01-03 17:40:00,34.9,18.6,30.31,ESE,123,2.0,8.0,51,0.00,,,0.01,Wunderground v.1.13,2013-01-03 22:40:00,
2013-01-03 17:50:00,34.9,18.6,30.31,SE,124,1.0,8.0,51,0.00,,,0.01,Wunderground v.1.13,2013-01-03 22:50:00,
2013-01-03 17:55:00,34.9,18.6,30.31,ESE,109,1.0,8.0,51,0.00,,,0.01,Wunderground v.1.13,2013-01-03 22:55:00,
2013-01-03 18:00:00,34.9,18.6,30.31,ESE,114,1.0,1.0,51,0.00,,,0.01,Wunderground v.1.13,2013-01-03 23:00:00,
2013-01-03 18:05:00,34.9,18.6,30.31,ESE,114,1.0,1.0,51,0.00,,,0.01,Wunderground v.1.13,2013-01-03 23:05:00,
2013-01-03 18:10:00,34.9,18.6,30.31,NE,45,1.0,8.0,51,0.00,,,0.01,Wunderground v.1.13,2013-01-03 23:10:00,
2013-01-03 18:15:00,34.9,18.6,30.31,SE,127,1.0,1.0,51,0.00,,,0.01,Wunderground v.1.13,2013-01-03 23:15:00,
2013-01-03 18:25:00,34.9,19.5,30.32,SE,140,0.0,8.0,53,0.00,,,0.01,Wunderground v.1.13,2013-01-03 23:25:00,
2013-01-03 18:30:00,34.9,19.0,30.32,ESE,106,0.0,8.0,52,0.00,,,0.01,Wunderground v.1.13,2013-01-03 23:30:00,
2013-01-03 18:35:00,34.9,18.6,30.32,SSE,148,0.0,8.0,51,0.00,,,0.01,Wunderground v.1.13,2013-01-03 23:35:00,
2013-01-03 18:40:00,34.9,19.5,30.32,SSE,148,0.0,8.0,53,0.00,,,0.01,Wunderground v.1.13,2013-01-03 23:40:00,
2013-01-03 18:45:00,34.9,19.5,30.32,ESE,120,0.0,8.0,53,0.00,,,0.01,Wunderground v.1.13,2013-01-03 23:45:00,
2013-01-03 18:55:00,34.9,19.0,30.32,SE,137,2.0,2.0,52,0.00,,,0.01,Wunderground v.1.13,2013-01-03 23:55:00,
2013-01-03 19:00:00,34.9,19.0,30.32,East,86,1.0,8.0,52,0.00,,,0.01,Wunderground v.1.13,2013-01-04 00:00:00,
2013-01-03 19:05:00,34.9,18.6,30.33,SSE,150,1.0,1.0,51,0.00,,,0.01,Wunderground v.1.13,2013-01-04 00:05:00,
2013-01-03 19:10:00,34.9,18.6,30.33,ESE,113,2.0,8.0,51,0.00,,,0.01,Wunderground v.1.13,2013-01-04 00:10:00,
2013-01-03 19:15:00,34.9,18.1,30.33,ESE,102,2.0,2.0,50,0.00,,,0.01,Wunderground v.1.13,2013-01-04 00:15:00,
2013-01-03 19:20:00,34.9,19.0,30.33,ESE,104,2.0,8.0,52,0.00,,,0.01,Wunderground v.1.13,2013-01-04 00:20:00,
2013-01-03 19:30:00,34.9,19.0,30.33,ESE,110,2.0,8.0,52,0.00,,,0.01,Wunderground v.1.13,2013-01-04 00:30:00,
2013-01-03 19:35:00,34.9,19.0,30.33,ESE,102,2.0,2.0,52,0.00,,,0.01,Wunderground v.1.13,2013-01-04 00:35:00,
2013-01-03 19:40:00,34.9,19.0,30.33,East,100,1.0,8.0,52,0.00,,,0.01,Wunderground v.1.13,2013-01-04 00:40:00,
2013-01-03 19:45:00,34.7,18.9,30.33,ESE,104,2.0,8.0,52,0.00,,,0.01,Wunderground v.1.13,2013-01-04 00:45:00,
2013-01-03 19:50:00,34.7,18.9,30.34,East,80,2.0,8.0,52,0.00,,,0.01,Wunderground v.1.13,2013-01-04 00:50:00,
2013-01-03 20:00:00,34.7,19.3,30.34,East,95,2.0,8.0,53,0.00,,,0.01,Wunderground v.1.13,2013-01-04 01:00:00,
2013-01-03 20:05:00,34.7,19.3,30.34,SE,141,3.0,3.0,53,0.00,,,0.01,Wunderground v.1.13,2013-01-04 01:05:00,
2013-01-03 20:10:00,34.7,19.7,30.34,SE,128,3.0,8.0,54,0.00,,,0.01,Wunderground v.1.13,2013-01-04 01:10:00,
2013-01-03 20:15:00,34.6,19.6,30.34,ESE,120,3.0,3.0,54,0.00,,,0.01,Wunderground v.1.13,2013-01-04 01:15:00,
2013-01-03 20:20:00,34.6,20.1,30.34,SE,144,3.0,8.0,55,0.00,,,0.01,Wunderground v.1.13,2013-01-04 01:20:00,
2013-01-03 20:25:00,34.4,19.9,30.34,SSE,161,3.0,8.0,55,0.00,,,0.01,Wunderground v.1.13,2013-01-04 01:25:00,
2013-01-03 20:35:00,34.3,20.2,30.33,SE,127,3.0,3.0,56,0.00,,,0.01,Wunderground v.1.13,2013-01-04 01:35:00,
2013-01-03 20:40:00,34.3,20.6,30.33,SE,127,2.0,8.0,57,0.00,,,0.01,Wunderground v.1.13,2013-01-04 01:40:00,
2013-01-03 20:45:00,34.3,20.6,30.33,SE,133,1.0,8.0,57,0.00,,,0.01,Wunderground v.1.13,2013-01-04 01:45:00,
2013-01-03 20:50:00,34.3,21.4,30.34,ESE,116,1.0,8.0,59,0.00,,,0.01,Wunderground v.1.13,2013-01-04 01:50:00,
2013-01-03 20:55:00,34.1,20.9,30.34,SE,133,1.0,8.0,58,0.00,,,0.01,Wunderground v.1.13,2013-01-04 01:55:00,
2013-01-03 21:00:00,34.1,21.3,30.34,SSE,161,1.0,8.0,59,0.00,,,0.01,Wunderground v.1.13,2013-01-04 02:00:00,
2013-01-03 21:05:00,34.1,21.3,30.34,ESE,117,1.0,1.0,59,0.00,,,0.00,Wunderground v.1.13,2013-01-04 02:05:00,
2013-01-03 21:10:00,34.1,22.0,30.34,SSE,158,1.0,8.0,61,0.00,,,0.00,Wunderground v.1.13,2013-01-04 02:10:00,
2013-01-03 21:15:00,34.1,21.7,30.34,SE,141,0.0,8.0,60,0.00,,,0.00,Wunderground v.1.13,2013-01-04 02:15:00,
2013-01-03 21:20:00,34.0,21.6,30.33,SSW,196,1.0,8.0,60,0.00,,,0.00,Wunderground v.1.13,2013-01-04 02:20:00,
2013-01-03 21:25:00,34.0,22.0,30.33,SE,137,1.0,8.0,61,0.00,,,0.00,Wunderground v.1.13,2013-01-04 02:25:00,
2013-01-03 21:35:00,33.8,21.8,30.34,SW,233,0.0,8.0,61,0.00,,,0.00,Wunderground v.1.13,2013-01-04 02:35:00,
2013-01-03 21:40:00,33.8,21.4,30.34,SSE,148,1.0,1.0,60,0.00,,,0.00,Wunderground v.1.13,2013-01-04 02:40:00,
2013-01-03 21:45:00,33.8,21.8,30.34,SE,145,1.0,1.0,61,0.00,,,0.00,Wunderground v.1.13,2013-01-04 02:45:00,
2013-01-03 21:50:00,33.8,22.1,30.34,ESE,113,1.0,1.0,62,0.00,,,0.00,Wunderground v.1.13,2013-01-04 02:50:00,
2013-01-03 21:55:00,33.8,21.8,30.34,ESE,123,1.0,8.0,61,0.00,,,0.00,Wunderground v.1.13,2013-01-04 02:55:00,
2013-01-03 22:00:00,33.7,21.3,30.34,SE,137,1.0,8.0,60,0.00,,,0.00,Wunderground v.1.13,2013-01-04 03:00:00,
2013-01-03 22:10:00,33.7,21.7,30.35,SSE,162,2.0,2.0,61,0.00,,,0.00,Wunderground v.1.13,2013-01-04 03:10:00,
2013-01-03 22:15:00,33.7,21.7,30.35,East,96,2.0,2.0,61,0.00,,,0.00,Wunderground v.1.13,2013-01-04 03:15:00,
2013-01-03 22:20:00,33.5,21.9,30.35,ENE,62,1.0,1.0,62,0.00,,,0.00,Wunderground v.1.13,2013-01-04 03:20:00,
2013-01-03 22:25:00,33.5,21.1,30.35,SE,143,1.0,8.0,60,0.00,,,0.00,Wunderground v.1.13,2013-01-04 03:25:00,
2013-01-03 22:30:00,33.4,21.4,30.35,SSE,147,2.0,8.0,61,0.00,,,0.00,Wunderground v.1.13,2013-01-04 03:30:00,
2013-01-03 22:40:00,33.4,21.8,30.35,SSE,157,2.0,2.0,62,0.00,,,0.00,Wunderground v.1.13,2013-01-04 03:40:00,
2013-01-03 22:45:00,33.2,21.2,30.35,ENE,72,2.0,8.0,61,0.00,,,0.00,Wunderground v.1.13,2013-01-04 03:45:00,
2013-01-03 22:50:00,33.1,21.5,30.35,SSE,162,2.0,2.0,62,0.00,,,0.00,Wunderground v.1.13,2013-01-04 03:50:00,
2013-01-03 22:55:00,33.1,21.5,30.35,South,172,1.0,8.0,62,0.00,,,0.00,Wunderground v.1.13,2013-01-04 03:55:00,
2013-01-03 23:00:00,33.1,21.5,30.35,SE,138,1.0,8.0,62,0.00,,,0.00,Wunderground v.1.13,2013-01-04 04:00:00,
2013-01-03 23:05:00,33.1,21.5,30.36,SE,134,1.0,8.0,62,0.00,,,0.00,Wunderground v.1.13,2013-01-04 04:05:00,
2013-01-03 23:15:00,32.9,21.3,30.36,SE,126,1.0,8.0,62,0.00,,,0.00,Wunderground v.1.13,2013-01-04 04:15:00,
2013-01-03 23:20:00,32.9,20.9,30.36,WNW,282,1.0,1.0,61,0.00,,,0.00,Wunderground v.1.13,2013-01-04 04:20:00,
2013-01-03 23:25:00,32.9,20.9,30.36,SSE,161,1.0,8.0,61,0.00,,,0.00,Wunderground v.1.13,2013-01-04 04:25:00,
2013-01-03 23:30:00,32.9,20.9,30.36,South,174,1.0,1.0,61,0.00,,,0.00,Wunderground v.1.13,2013-01-04 04:30:00,
2013-01-03 23:35:00,32.9,21.3,30.36,SE,133,0.0,8.0,62,0.00,,,0.00,Wunderground v.1.13,2013-01-04 04:35:00,
2013-01-03 23:45:00,32.9,21.3,30.36,ESE,107,0.0,8.0,62,0.00,,,0.00,Wunderground v.1.13,2013-01-04 04:45:00,
2013-01-03 23:50:00,32.9,20.9,30.35,SE,136,0.0,8.0,61,0.00,,,0.00,Wunderground v.1.13,2013-01-04 04:50:00,
2013-01-03 23:55:00,32.9,20.9,30.35,SE,136,0.0,8.0,61,0.00,,,0.00,Wunderground v.1.13,2013-01-04 04:55:00,